Tracking 20942 objects as of 13-Jul-2020
HD Live streaming from Space Station
objects crossing your sky now

THORAD DELTA 1 DEB

Track THORAD DELTA 1 DEB now!
10-day predictions


NORAD ID: 8555
Int'l Code: 1974-089CS
Perigee: 1,411.3 km
Apogee: 1,504.6 km
Inclination: 101.3 °
Period: 114.9 minutes
Semi major axis: 7828 km
RCS: 0.0537 m2 (small)
Launch date: November 15, 1974
Source: United States (US)
Launch site: AIR FORCE WESTERN TEST RANGE (AFWTR)

Note: This is SATELLITE DEBRIS
aabbcc
Your satellite tracking list
Your tracking list is empty




NASA's NSSDC Master Catalog

Two Line Element Set (TLE):
1  8555U 74089CS  20194.11605558 +.00000121 +00000-0 +10236-2 0  9996
2  8555 101.2953 005.9595 0059576 320.8917 158.7937 12.53269627081812
Source of the keplerian elements: AFSPC